Location: Cerro Alto Campground
(35.4250°N, 120.7383°W)
Time: 04:11:47
(UTC-07:00)

Daily predictions for brighter satellites

Satellite Brightness Start Highest point End
(mag) Time Altitude Azimuth Time Altitude Azimuth Time Altitude Azimuth
Lacrosse 5 rocket 4.4 00:08:38 11° NW 00:08:45 11° NW 00:10:00 10° NNW
H-2A R/B 4.2 00:13:08 19° W 00:13:08 19° W 00:15:59 10° NW
NOSS 3-1 (C) 4.1 00:04:30 10° NW 00:11:46 68° W 00:11:46 68° W
USA 234 4.0 00:09:23 10° NNE 00:15:36 48° NW 00:18:24 31° W
Lacrosse 5 4.4 00:28:51 10° WNW 00:32:15 18° NNW 00:35:38 10° N
Cosmos 2369 Rocket 3.7 00:34:53 30° NW 00:34:53 30° NW 00:39:21 10° N
ATLAS 3B CENTAUR R/B 4.4 00:59:07 55° SE 00:59:07 55° SE 01:20:32 10° E
Cosmos 1943 Rocket 3.6 01:03:42 33° NNW 01:03:42 33° NNW 01:07:14 10° N
ATLAS CENTAUR R/B 4.4 01:34:29 14° ENE 01:34:29 14° ENE 01:35:15 10° NE
ATLAS 2AS CENTAUR R/B 3.8 01:47:45 10° NW 01:53:00 38° WNW 01:53:00 38° WNW
Cosmos 1697 Rocket 4.1 02:19:13 30° ENE 02:19:13 30° ENE 02:22:56 10° NE
Cosmos 1464 Rocket 4.3 02:26:08 60° ENE 02:26:08 60° ENE 02:31:43 10° NNE
Cosmos 1980 Rocket 3.9 02:28:07 23° E 02:28:07 23° E 02:31:51 10° NE
Cosmos 2082 4.4 02:23:08 10° NNW 02:27:23 49° N 02:27:23 49° N
SeaSat 1 3.7 02:34:34 37° N 02:34:34 37° N 02:37:33 10° NNW
Cosmos 2227 Rocket 2.9 02:31:36 10° NNW 02:35:39 48° NNW 02:35:39 48° NNW
NPP 4.0 02:45:43 10° NNE 02:50:08 61° NNE 02:50:08 61° NNE
Cosmos 1513 Rocket 4.4 02:53:16 77° NNE 02:53:16 77° NNE 02:58:54 10° N
Cosmos 2297 Rocket 2.5 02:52:31 10° NNW 02:57:07 60° NNW 02:57:07 60° NNW
Milstar 3 Cent rocket 4.0 03:02:11 20° ESE 03:02:11 20° ESE 03:04:25 10° ESE
SL-08 R/B 4.3 03:03:12 42° N 03:03:12 42° N 03:06:17 10° N
Meteor 2-5 Rocket 3.9 03:00:52 10° NNW 03:06:03 66° NW 03:06:03 66° NW
ATLAS CENTAUR R/B 3.1 03:10:48 33° NW 03:10:48 33° NW 03:14:39 10° NNE
ERS-2 4.2 03:06:44 10° NNE 03:08:37 28° NNE 03:08:37 28° NNE
Cosmos 1891 Rocket 4.4 03:11:45 69° WNW 03:11:45 69° WNW 03:17:35 10° N
Cosmos 841 Rocket 3.6 03:14:44 73° NE 03:14:44 73° NE 03:19:33 10° NNE
SL-16 R/B 4.0 03:13:56 18° SE 03:15:42 21° E 03:19:50 10° NE
Cosmos 1763 Rocket 3.6 03:18:52 69° NNW 03:18:52 69° NNW 03:23:31 10° NNE
NOSS 3-4 (A) 3.7 03:11:34 10° NNW 03:18:41 88° ENE 03:23:10 27° SSE
NOSS 3-4 (C) 3.7 03:11:41 10° NNW 03:18:49 88° ENE 03:23:37 25° SSE
Cosmos 1937 Rocket 4.1 03:19:11 10° NNW 03:22:56 46° NW 03:22:56 46° NW
Geosat 4.0 03:19:21 10° NNE 03:24:03 72° NNW 03:24:03 72° NNW
Cosmos 1656 4.3 03:26:45 43° WNW 03:26:45 43° WNW 03:32:02 10° N
Cosmos 2034 Rocket 4.2 03:28:10 53° W 03:28:12 53° W 03:34:15 10° N
Nadezhda 4 Rocket 3.8 03:29:17 10° N 03:35:31 83° W 03:36:47 59° S
BREEZE-M DEB (TANK) 3.0 03:35:13 76° SW 03:35:36 90° NW 03:39:35 10° NE
UNKNOWN OBJECT B 4.3 03:32:37 10° NE 03:36:01 30° E 03:36:06 29° E
Cosmos 1441 Rocket 4.0 03:32:06 10° N 03:35:13 50° NNE 03:35:13 50° NNE
IRS-1C 4.4 03:31:33 10° N 03:36:39 51° WNW 03:36:39 51° WNW
CZ-2D R/B 2.5 03:32:19 10° NNE 03:37:41 59° E 03:38:57 46° SSE
SL-24 R/B 4.4 03:37:29 61° SE 03:38:10 71° ENE 03:42:39 10° N
Cosmos 540 Rocket 4.0 03:38:33 44° SE 03:39:32 51° ESE 03:44:32 10° NNE
Meteor 1-24 Rocket 3.7 03:34:32 10° NNW 03:40:18 67° W 03:40:46 64° WSW
Meteor 1-22 Rocket 4.4 03:40:19 56° WSW 03:40:51 58° W 03:46:54 10° N
Cosmos 1805 3.7 03:43:42 58° ENE 03:43:42 58° ENE 03:47:12 10° NNE
EO 1 Del DPAF 4.5 03:42:53 34° ESE 03:43:47 40° ENE 03:47:27 10° N
ARIANE 5 R/B 2.4 03:39:20 10° NNE 03:44:30 87° WNW 03:45:08 70° SSW
ERS-1 4.4 03:40:53 10° N 03:45:52 64° WNW 03:46:01 63° W
SL-16 R/B 2.6 03:44:11 26° SSE 03:47:50 78° ENE 03:54:01 10° N
CZ-3 R/B 4.2 03:29:13 31° SW 03:48:43 54° S 03:59:28 10° E
IRS P6 4.5 03:45:34 10° N 03:50:49 81° WNW 03:51:41 62° SSW
SME Rocket 4.1 03:48:30 38° S 03:50:59 84° WSW 03:59:26 10° NNW
Cosmos 1758 3.3 03:53:04 75° N 03:53:04 75° N 03:56:46 10° N
OAO 1 4.4 03:52:47 64° SW 03:53:17 68° SSW 03:58:42 10° ESE
Cosmos 1953 2.3 03:56:01 72° NNW 03:56:01 72° NNW 03:59:48 10° N
In-Cosmos 22 4.0 03:53:07 10° N 03:58:25 81° E 04:00:56 32° SSE
ADEOS 4.3 03:56:42 10° N 04:01:27 36° WNW 04:01:52 36° W
Cosmos 1697 Rocket 3.7 04:00:57 29° WNW 04:01:49 30° WNW 04:06:45 10° N
Cosmos 2026 Rocket 4.2 03:59:54 10° N 04:06:13 69° E 04:12:14 11° SSE
Cosmos 1076 Rocket 4.3 04:03:01 10° NNW 04:06:17 37° WNW 04:06:17 37° WNW
Resurs 1-4 Rocket 2.1 04:04:18 10° N 04:09:31 67° WNW 04:11:01 45° SW
Cosmos 1674 4.2 04:06:31 10° NNE 04:09:59 35° E 04:13:01 12° SE
Cosmos 1980 Rocket 2.8 04:09:54 36° W 04:11:10 41° WNW 04:16:30 10° N
Cosmos 2360 Rocket 4.1 04:07:35 10° SSE 04:11:58 24° E 04:16:22 10° NE
Cosmos 1634 Rocket 4.0 04:10:05 39° SSW 04:12:25 64° W 04:18:41 10° N
IRS-1D 3.9 04:12:08 10° N 04:16:51 44° WNW 04:17:55 38° WSW
Cosmos 2195 Rocket 4.3 04:11:29 10° N 04:17:37 83° W 04:22:22 18° S
Cosmos 332 Rocket 3.8 04:20:11 44° SW 04:21:30 63° WNW 04:26:19 10° N
Cosmos 1500 Rocket 3.6 04:18:59 10° N 04:23:23 79° E 04:26:25 19° SSE
Cosmos 2322 Rocket 2.1 04:21:43 34° SSW 04:24:18 85° WNW 04:29:57 10° NNE
Cosmos 1092 Rocket 4.4 04:21:43 10° NNW 04:27:34 42° W 04:30:05 29° SW
Meteor 1-21 Rocket 4.3 04:21:57 10° NNW 04:27:51 68° W 04:32:29 17° S
Cosmos 1743 Rocket 3.6 04:25:00 10° NNW 04:29:16 57° W 04:30:47 36° SSW
Cosmos-2242 4.1 04:33:41 26° W 04:33:58 26° WNW 04:37:37 10° NNW
UNK 4.3 04:34:04 33° WSW 04:34:56 36° W 04:39:16 10° NNW
Cosmos 2221 3.7 04:31:10 10° SSE 04:35:10 41° E 04:39:12 10° NNE
Cosmos 1437 3.6 04:32:49 10° NNW 04:35:32 35° WNW 04:35:32 35° WNW
MTI 3.9 04:37:24 47° SW 04:37:55 54° W 04:41:09 10° NNW
RESURS DK-1 2.2 04:35:23 10° NNW 04:39:31 79° WSW 04:43:38 10° SSE
Cosmos 371 Rocket 3.3 04:37:54 30° SW 04:40:09 62° WNW 04:44:56 10° N
GPS 2-04 Rocket1 2.7 04:39:16 33° W 04:40:51 58° SSW 04:44:39 10° ESE
Cosmos 1470 2.8 04:40:33 33° SSW 04:42:08 60° W 04:46:05 10° N
Cosmos 372 Rocket 3.8 04:37:15 10° NNW 04:42:21 74° WSW 04:47:25 10° S
Okean O Rocket 1.6 04:42:36 10° N 04:47:00 71° WNW 04:49:54 21° SSW
Aureole 1 Rocket 4.3 04:44:09 24° SW 04:47:46 54° WNW 04:55:09 10° N
CZ-2C R/B 3.7 04:44:52 10° SSE 04:49:34 83° WSW 04:54:12 10° NNW
Cosmos 1428 Rocket 4.4 04:43:36 10° N 04:49:44 82° W 04:55:50 10° S
USA 81 4.5 04:47:17 23° SW 04:50:07 43° W 04:55:08 10° N
Delta 2 Rocket 4.4 04:50:46 21° S 04:52:07 27° SSE 04:55:23 10° E
Abrixas 3.0 04:55:35 28° W 04:56:32 37° SW 04:59:24 10° SSE
PSLV R/B 4.1 04:53:33 10° N 04:57:13 46° WNW 04:59:17 22° SW
GRACE-1 4.1 04:54:44 12° S 04:57:15 73° E 05:00:08 10° N
GRACE-2 4.1 04:55:07 12° S 04:57:41 73° E 05:00:34 10° N
SL-16 R/B 2.7 04:55:50 20° SW 04:59:24 45° WNW 05:04:51 10° N
Cosmos 2279 Rocket 4.5 04:59:34 17° SW 05:04:04 41° W 05:09:58 10° N
PSLV R/B 4.2 05:01:06 10° NNE 05:05:16 54° E 05:09:27 10° S
DELTA 2 R/B (1) 3.6 05:03:39 17° WSW 05:08:05 84° NNW 05:13:43 10° ENE
Cosmos 1461 3.6 05:07:24 10° NW 05:10:54 29° WSW 05:14:18 10° S
COSMOS 2428 4.1 05:06:12 10° S 05:11:19 36° ESE 05:16:28 10° NE
Cosmos 2263 Rocket 2.4 05:06:12 10° NNW 05:11:48 75° ENE 05:17:20 10° SSE
Lacrosse 5 rocket 4.3 05:10:46 10° N 05:12:23 12° NE 05:14:02 10° ENE
Cosmos 1733 4.2 05:12:11 17° SW 05:14:19 28° WNW 05:17:38 10° NNW
ADEOS II 2.7 05:09:49 10° NNE 05:15:00 58° E 05:20:09 10° S
CZ-2D R/B 3.9 05:13:57 10° NNW 05:17:11 16° WNW 05:20:17 10° W
Cosmos 2322 3.7 05:14:29 10° SSW 05:20:12 85° WNW 05:25:58 10° NNE
CZ-4B R/B 3.4 05:19:06 10° N 05:22:39 36° WNW 05:25:57 10° SW
CZ-4B R/B 3.6 05:17:57 10° N 05:23:10 44° WNW 05:28:15 10° SW
Cosmos 1805 Rocket 3.5 05:20:22 10° N 05:24:44 81° W 05:29:06 10° S
GEOS 3 Rocket 4.2 05:24:33 10° S 05:29:13 33° WSW 05:33:53 10° NW
SL-16 R/B 4.1 05:29:20 10° WSW 05:32:00 13° W 05:34:42 10° WNW
Cosmos 2266 Rocket 4.0 05:27:49 10° NNW 05:33:57 67° W 05:40:10 10° S
Sich 1 3.1 05:31:24 10° N 05:35:44 82° E 05:40:05 10° S
Okean-O 2.7 05:31:47 10° N 05:36:10 63° WNW 05:40:32 10° SSW
Cosmos 2151 3.9 05:32:42 10° NNW 05:36:27 29° W 05:40:09 10° SSW
Milstar 3 Cent rocket 3.5 05:31:20 10° WSW 05:36:38 39° S 05:45:56 10° ESE
Aureole 3 4.2 05:35:30 10° NNW 05:40:11 57° W 05:46:09 10° S
Cosmos 304 Rocket 4.0 05:37:54 10° SSW 05:42:35 52° WNW 05:47:18 10° N
Cosmos 1680 Rocket 3.5 05:39:13 10° SSW 05:44:24 73° WNW 05:49:39 10° NNE
USA 116 3.2 05:41:28 10° S 05:44:36 62° W 05:48:01 10° NNW
